{"data":{"norad_id":68358,"intl_designator":"2026-060J","name":"CENTISPACE-2 S9","alt_names":[],"object_type":"PAYLOAD","status":"ACTIVE","operator":null,"country":"PRC","launch_date":"2026-03-22","launch_site_code":"YSLA","launch_vehicle":null,"mission":null,"orbit_class":"UNKNOWN","rcs_meters":null,"size_class":null,"mass_kg":null,"dimensions":null,"purposes":[],"wikipedia_slug":null,"has_3d_model":false,"image_url":null,"decayed_at":null,"tle_current":{"epoch":"2026-05-25T09:03:53.489952Z","epoch_age_seconds":32598,"freshness":"FRESH","line1":"1 68358U 26060J   26145.37770243 -.00000037  00000+0  26209-4 0  9998","line2":"2 68358  54.9791 129.0877 0011217  89.1373 271.0910 14.72831996  9407","mean_motion":14.72831996,"eccentricity":0.0011217,"inclination_deg":54.9791,"raan_deg":129.0877,"arg_perigee_deg":89.1373,"mean_anomaly_deg":271.091,"bstar":2.6209e-5,"rev_number":940,"period_min":97.770825451296,"perigee_km":644.15600231437,"apogee_km":659.92750533069,"semimajor_km":7030.1787538225,"source":"CELESTRAK","updated_at":"2026-05-25T13:38:07.762565Z"}}}